• In Belarus
  • List of Countries
  • For 7 days
  • Water Temperature
  • Satellite Maps
  • Weather Map
  • Weather Widgets
  • user-avatar
    Login

    Hourly Weather Dromore

    Today, 24 May, Friday

    Time Temperature Precipitation Wind Pressure Humidity
    00:00 +8°C° 0 mm 1 mps 753 mmHg 76%
    01:00 +8°C° 0 mm 1 mps 753 mmHg 75%
    02:00 +8°C° 0 mm 1 mps 753 mmHg 75%
    03:00 +7°C° 0 mm 1 mps 753 mmHg 75%
    04:00 +8°C° 0 mm 1 mps 753 mmHg 77%
    05:00 +9°C° 0 mm 1 mps 753 mmHg 79%
    06:00 +9°C° 0 mm 1 mps 753 mmHg 81%
    07:00 +11°C° 0 mm 1 mps 753 mmHg 80%
    08:00 +12°C° 0 mm 1 mps 754 mmHg 79%
    09:00 +14°C° 0 mm 2 mps 754 mmHg 78%
    10:00 +15°C° 0 mm 2 mps 754 mmHg 78%
    11:00 +15°C° 0 mm 2 mps 754 mmHg 79%
    12:00 +16°C° 0 mm 2 mps 754 mmHg 80%
    13:00 +16°C° 0.2 mm 2 mps 754 mmHg 82%
    14:00 +16°C° 0.2 mm 2 mps 754 mmHg 84%
    15:00 +16°C° 0.2 mm 2 mps 754 mmHg 86%
    16:00 +15°C° 0.3 mm 2 mps 754 mmHg 87%
    17:00 +15°C° 0.3 mm 2 mps 754 mmHg 87%
    18:00 +15°C° 0.3 mm 2 mps 754 mmHg 88%
    19:00 +14°C° 0 mm 2 mps 754 mmHg 90%
    20:00 +12°C° 0 mm 2 mps 754 mmHg 92%
    21:00 +10°C° 0 mm 2 mps 755 mmHg 94%
    22:00 +10°C° 0 mm 1 mps 755 mmHg 94%
    23:00 +9°C° 0 mm 1 mps 755 mmHg 94%

    Tomorrow, 25 May, Saturday

    Time Temperature Precipitation Wind Pressure Humidity
    00:00 +8°C° 0 mm 1 mps 755 mmHg 94%
    01:00 +8°C° 0 mm 1 mps 754 mmHg 94%
    02:00 +7°C° 0 mm 1 mps 754 mmHg 94%
    03:00 +7°C° 0 mm 1 mps 754 mmHg 94%
    04:00 +8°C° 0 mm 1 mps 754 mmHg 94%
    05:00 +9°C° 0 mm 1 mps 754 mmHg 94%
    06:00 +10°C° 0 mm 1 mps 754 mmHg 93%
    07:00 +10°C° 0.1 mm 1 mps 754 mmHg 93%
    08:00 +10°C° 0.1 mm 2 mps 754 mmHg 94%
    09:00 +12°C° 0.1 mm 2 mps 754 mmHg 94%
    10:00 +13°C° 0.1 mm 2 mps 754 mmHg 94%
    11:00 +12°C° 0.1 mm 3 mps 753 mmHg 94%
    12:00 +13°C° 0.1 mm 3 mps 753 mmHg 93%
    13:00 +13°C° 0.1 mm 4 mps 753 mmHg 93%
    14:00 +14°C° 0.1 mm 4 mps 753 mmHg 93%
    15:00 +14°C° 0.1 mm 4 mps 752 mmHg 92%
    16:00 +14°C° 0 mm 4 mps 752 mmHg 91%
    17:00 +14°C° 0 mm 4 mps 752 mmHg 90%
    18:00 +14°C° 0 mm 4 mps 752 mmHg 89%
    19:00 +14°C° 0 mm 4 mps 751 mmHg 91%
    20:00 +13°C° 0 mm 4 mps 751 mmHg 92%
    21:00 +13°C° 0 mm 4 mps 751 mmHg 93%
    22:00 +13°C° 0 mm 4 mps 751 mmHg 94%
    23:00 +12°C° 0 mm 4 mps 751 mmHg 95%

    Day after tomorrow, 26 May, Sunday

    Time Temperature Precipitation Wind Pressure Humidity
    00:00 +12°C° 0 mm 4 mps 750 mmHg 95%
    01:00 +12°C° 0.1 mm 4 mps 750 mmHg 96%
    02:00 +12°C° 0.1 mm 5 mps 749 mmHg 96%
    03:00 +13°C° 0.1 mm 5 mps 748 mmHg 97%
    04:00 +13°C° 0.1 mm 5 mps 748 mmHg 96%
    05:00 +13°C° 0.1 mm 5 mps 748 mmHg 96%
    06:00 +14°C° 0.1 mm 5 mps 747 mmHg 96%
    07:00 +14°C° 0.1 mm 6 mps 747 mmHg 94%
    08:00 +14°C° 0.1 mm 6 mps 747 mmHg 92%
    09:00 +14°C° 0.1 mm 7 mps 747 mmHg 90%
    10:00 +14°C° 0.1 mm 7 mps 747 mmHg 86%
    11:00 +12°C° 0.1 mm 8 mps 748 mmHg 83%
    12:00 +12°C° 0.1 mm 8 mps 748 mmHg 79%
    13:00 +12°C° 0 mm 8 mps 748 mmHg 77%
    14:00 +12°C° 0 mm 8 mps 748 mmHg 76%
    15:00 +12°C° 0 mm 8 mps 748 mmHg 75%
    16:00 +11°C° 0.1 mm 8 mps 748 mmHg 75%
    17:00 +11°C° 0.1 mm 7 mps 748 mmHg 76%
    18:00 +10°C° 0.1 mm 7 mps 749 mmHg 77%
    19:00 +10°C° 0 mm 6 mps 749 mmHg 80%
    20:00 +9°C° 0 mm 5 mps 749 mmHg 83%
    21:00 +8°C° 0 mm 5 mps 749 mmHg 85%
    22:00 +7°C° 0 mm 5 mps 748 mmHg 87%
    23:00 +7°C° 0 mm 5 mps 748 mmHg 89%

    27 May, Monday

    Time Temperature Precipitation Wind Pressure Humidity
    00:00 +7°C° 0 mm 5 mps 748 mmHg 91%
    01:00 +7°C° 0 mm 5 mps 748 mmHg 91%
    02:00 +7°C° 0 mm 5 mps 747 mmHg 90%
    03:00 +7°C° 0 mm 5 mps 747 mmHg 90%
    04:00 +8°C° 0 mm 5 mps 747 mmHg 89%
    05:00 +8°C° 0 mm 5 mps 747 mmHg 88%
    06:00 +8°C° 0 mm 6 mps 747 mmHg 87%
    07:00 +9°C° 0.1 mm 6 mps 746 mmHg 85%
    08:00 +9°C° 0.1 mm 6 mps 746 mmHg 84%
    09:00 +10°C° 0.1 mm 6 mps 746 mmHg 82%
    10:00 +10°C° 0.2 mm 6 mps 746 mmHg 82%
    11:00 +10°C° 0.2 mm 6 mps 746 mmHg 82%
    12:00 +10°C° 0.2 mm 6 mps 745 mmHg 82%
    13:00 +10°C° 0.4 mm 6 mps 745 mmHg 83%
    14:00 +10°C° 0.4 mm 6 mps 745 mmHg 84%
    15:00 +10°C° 0.4 mm 7 mps 745 mmHg 85%
    16:00 +10°C° 0.5 mm 6 mps 745 mmHg 87%
    17:00 +9°C° 0.5 mm 6 mps 745 mmHg 89%
    18:00 +9°C° 0.5 mm 6 mps 745 mmHg 91%
    19:00 +8°C° 0.1 mm 6 mps 745 mmHg 92%
    20:00 +7°C° 0.1 mm 6 mps 746 mmHg 92%
    21:00 +6°C° 0.1 mm 7 mps 746 mmHg 93%
    22:00 +5°C° 0.1 mm 6 mps 747 mmHg 91%
    23:00 +5°C° 0.1 mm 6 mps 747 mmHg 89%

    28 May, Tuesday

    Time Temperature Precipitation Wind Pressure Humidity
    00:00 +4°C° 0.1 mm 6 mps 748 mmHg 87%
    01:00 +5°C° 0 mm 5 mps 749 mmHg 88%
    02:00 +5°C° 0 mm 4 mps 749 mmHg 89%
    03:00 +4°C° 0 mm 3 mps 750 mmHg 90%
    04:00 +5°C° 0 mm 3 mps 751 mmHg 89%
    05:00 +5°C° 0 mm 3 mps 752 mmHg 88%
    06:00 +7°C° 0 mm 3 mps 753 mmHg 86%
    07:00 +7°C° 0.1 mm 4 mps 753 mmHg 81%
    08:00 +8°C° 0.1 mm 5 mps 754 mmHg 75%
    09:00 +9°C° 0.1 mm 5 mps 754 mmHg 69%
    10:00 +9°C° 0 mm 5 mps 755 mmHg 67%
    11:00 +9°C° 0 mm 5 mps 755 mmHg 66%
    12:00 +9°C° 0 mm 5 mps 755 mmHg 64%
    13:00 +10°C° 0 mm 5 mps 756 mmHg 64%
    14:00 +10°C° 0 mm 5 mps 756 mmHg 63%
    15:00 +10°C° 0 mm 5 mps 756 mmHg 63%
    16:00 +10°C° 0 mm 5 mps 756 mmHg 64%
    17:00 +10°C° 0 mm 5 mps 756 mmHg 66%
    18:00 +10°C° 0 mm 5 mps 757 mmHg 67%
    19:00 +8°C° 0 mm 4 mps 757 mmHg 73%
    20:00 +8°C° 0 mm 3 mps 757 mmHg 79%
    21:00 +6°C° 0 mm 2 mps 757 mmHg 84%
    22:00 +4°C° 0 mm 3 mps 757 mmHg 87%
    23:00 +4°C° 0 mm 3 mps 757 mmHg 89%

    29 May, Wednesday

    Time Temperature Precipitation Wind Pressure Humidity
    00:00 +3°C° 0 mm 3 mps 757 mmHg 91%
    01:00 +3°C° 0 mm 3 mps 757 mmHg 90%
    02:00 +3°C° 0 mm 3 mps 757 mmHg 90%
    03:00 +3°C° 0 mm 3 mps 757 mmHg 89%
    04:00 +4°C° 0 mm 3 mps 757 mmHg 86%
    05:00 +5°C° 0 mm 3 mps 757 mmHg 83%
    06:00 +6°C° 0 mm 4 mps 757 mmHg 80%
    07:00 +8°C° 0 mm 4 mps 756 mmHg 77%
    08:00 +10°C° 0 mm 4 mps 756 mmHg 75%
    09:00 +11°C° 0 mm 4 mps 756 mmHg 73%
    10:00 +10°C° 0.5 mm 4 mps 756 mmHg 79%
    11:00 +10°C° 0.5 mm 4 mps 756 mmHg 86%
    12:00 +8°C° 0.5 mm 4 mps 756 mmHg 93%
    13:00 +8°C° 1.5 mm 4 mps 755 mmHg 94%
    14:00 +8°C° 1.5 mm 3 mps 755 mmHg 95%
    15:00 +8°C° 1.5 mm 3 mps 754 mmHg 96%
    16:00 +8°C° 1.4 mm 3 mps 754 mmHg 96%
    17:00 +8°C° 1.4 mm 2 mps 753 mmHg 97%
    18:00 +7°C° 1.4 mm 2 mps 753 mmHg 97%
    19:00 +8°C° 0.4 mm 2 mps 753 mmHg 97%
    20:00 +9°C° 0.4 mm 1 mps 752 mmHg 97%
    21:00 +9°C° 0.4 mm 1 mps 752 mmHg 97%
    22:00 +9°C° 0.5 mm 1 mps 752 mmHg 98%
    23:00 +9°C° 0.5 mm 1 mps 752 mmHg 98%
    Show more